カタログに戻る

PSLV R/B

運用中HEO
NORAD 40270·ROCKET BODY·🇮🇳 India

打ち上げ Oct 15, 2014 から Satish Dhawan Space Centre

Loading…

次のパス (今後24時間)

TLE

最新Source: Space-Track

元期: Sep 14, 2026, 09:06 UTC

1 40270U 14061B   26257.37975307  .00009960  00000-0  93818-3 0  9994
2 40270  17.7107 207.3190 5733904 137.8231 284.4934  4.48260101180971

AllMySatでPSLV R/Bをリアルタイム追跡

Download on the App Store